Wind_Speed
17 17 16 16 15 15 16 16 15 16 16 15 15 17 16 19 22 22 20 22 21 24 22 24 19 4 4 6 1 2 3 8 10 10 5 4 5 3 8 6 4 4 1 5 6 9 8
17 17 16 16 16 16 15 16 16 14 15 13 12 13 17 15 15 15 17 15 17 13 4 6 6 11 8 8 3 3 9 14 16 11 8 6 4 1 4 4 4 5 6 4 8 7 7
18 18 18 18 17 17 16 16 14 13 13 13 13 12 15 14 12 12 15 15 15 11 10 16 11 8 14 4 4 7 15 20 21 21 14 0 4 2 3 6 6 5 6 7 9 7 4
19 19 19 19 19 19 18 16 15 12 12 12 12 11 11 13 13 14 17 19 12 6 10 9 7 8 7 2 1 10 16 19 18 22 17 11 7 3 1 6 5 5 5 4 5 6 2
19 19 20 20 20 20 20 18 17 13 12 11 11 10 9 10 11 14 17 18 11 1 5 2 3 3 6 10 4 6 10 6 7 8 8 5 5 4 4 6 5 6 4 4 1 4 1
19 20 20 21 22 21 21 21 18 15 11 10 11 11 10 9 12 13 15 8 12 1 4 4 12 5 7 2 6 6 6 15 3 6 1 3 5 4 4 4 5 5 6 3 4 1 1
18 19 21 22 22 23 23 22 20 17 11 8 10 12 11 7 11 10 12 3 8 6 11 5 2 1 2 2 6 6 8 4 3 3 4 6 8 3 3 2 4 7 6 6 1 2 2
16 18 20 22 23 24 24 24 22 19 12 7 6 9 10 9 8 6 9 6 2 1 4 5 2 3 4 3 8 12 10 0 5 5 1 8 5 3 6 2 4 5 9 3 2 1 1
17 19 20 23 24 26 27 26 24 21 13 5 4 7 7 5 3 5 10 4 3 3 4 7 4 3 4 8 3 8 5 2 7 8 8 7 2 5 4 8 11 5 7 4 4 2 3
17 19 21 23 25 26 29 32 28 23 11 3 3 9 4 3 1 2 3 4 4 3 5 10 9 6 6 2 6 3 7 3 6 5 5 6 6 5 7 7 5 5 4 4 6 3 3
17 19 21 23 25 27 30 33 34 24 11 4 4 9 3 2 3 3 2 3 3 1 5 10 8 7 7 5 2 9 8 8 5 4 4 1 6 7 10 4 3 4 3 5 4 5 4
17 19 21 23 25 27 30 33 34 24 10 5 7 8 2 2 3 1 0 1 2 6 2 7 5 6 6 7 5 6 7 7 2 8 9 3 2 4 1 2 5 2 5 8 5 4 3
16 18 20 22 25 27 30 32 35 27 10 4 5 10 6 1 1 1 0 2 5 6 4 5 3 4 3 6 6 5 4 5 3 5 5 6 5 5 4 5 7 7 6 4 4 4 5
16 17 19 22 25 27 30 32 34 30 12 3 1 7 8 5 2 2 1 5 9 5 4 3 3 4 3 3 3 5 3 4 6 5 4 4 5 6 7 4 2 4 4 5 5 3 4
17 16 18 21 24 27 29 32 35 32 17 2 0 3 4 5 1 1 5 6 6 6 3 4 4 4 5 3 2 4 3 2 2 4 4 5 2 2 2 2 2 1 3 3 6 2 3
17 16 17 19 23 26 29 32 35 34 20 2 1 1 5 2 2 2 5 4 2 2 1 2 3 1 1 5 4 3 4 2 2 2 1 4 4 2 1 1 2 2 4 4 3 2 3
17 17 17 18 21 25 28 31 34 34 22 5 1 3 6 3 2 5 4 1 1 1 1 2 1 1 3 2 3 3 4 4 5 5 5 4 3 3 3 2 6 1 1 3 4 4 4
16 15 16 17 20 23 26 29 32 34 24 5 2 3 7 3 4 2 2 2 1 2 2 2 1 2 2 2 3 3 1 3 7 4 2 3 4 3 3 3 2 2 4 5 4 5 3
16 14 14 15 17 21 24 27 29 30 23 7 2 1 4 2 3 2 1 2 2 2 2 4 3 2 2 1 2 2 3 2 3 3 2 2 2 2 6 5 4 2 3 3 3 2 5
14 14 13 14 16 19 23 26 29 29 19 4 3 3 4 4 1 4 3 2 2 1 1 2 2 3 3 2 3 3 2 1 2 2 3 2 3 4 5 2 2 3 4 5 5 3 4
14 14 12 12 13 17 21 25 28 27 16 4 3 1 2 2 3 3 3 0 2 3 1 2 2 1 1 1 1 0 1 3 2 2 2 3 2 2 5 6 3 6 7 7 9 6 7
14 14 11 11 12 14 17 22 26 27 15 5 2 3 2 1 0 3 2 1 1 1 2 2 1 4 2 1 1 4 3 3 4 2 1 2 2 3 5 3 1 5 9 11 10 8 10
14 14 10 10 12 12 14 18 22 25 14 8 6 4 2 2 2 4 4 5 6 5 0 2 2 2 4 2 3 3 3 0 2 6 4 3 3 2 4 4 7 8 9 13 5 6 10
15 14 14 12 11 12 12 14 17 18 19 6 5 1 3 3 1 3 4 3 6 5 6 6 5 3 2 3 3 1 2 2 2 3 2 4 4 2 3 3 1 6 2 4 10 7 9
17 16 17 14 11 11 11 11 12 13 13 10 5 2 2 2 2 2 2 3 1 1 2 2 1 3 4 3 2 3 3 3 2 3 1 2 4 1 1 2 8 1 1 2 3 2 3
21 19 18 17 15 13 11 11 11 10 9 9 4 5 2 2 4 1 2 2 3 3 3 2 2 1 2 2 2 5 4 4 2 1 4 3 3 3 2 2 5 2 2 0 1 4 6
25 23 21 20 18 16 13 11 10 8 6 8 4 4 3 1 3 1 2 4 4 2 2 1 3 1 4 1 1 3 4 5 5 6 5 3 2 6 4 3 8 5 3 3 2 3 2
24 26 25 23 21 19 15 14 13 10 8 7 4 6 0 2 4 1 1 2 1 1 3 3 3 1 2 1 1 3 2 3 1 3 5 6 6 4 3 4 8 5 1 3 4 3 3
23 26 27 27 25 22 19 17 15 12 10 9 5 7 5 3 4 3 6 7 4 2 4 2 3 3 4 3 1 1 2 2 1 3 2 2 5 4 7 6 3 3 3 4 5 5 4
Wind_Direction
31 27 22 16 11 10 0 357 7 14 13 21 24 21 12 14 33 38 37 45 47 64 75 98 113 84 53 53 132 152 123 156 136 131 27 328 129 157 137 128 104 85 341 30 348 62 64
31 28 20 14 12 9 3 357 0 14 15 21 20 20 9 7 11 27 24 29 27 33 59 131 130 112 102 81 150 137 120 154 137 108 261 240 162 302 104 114 94 128 81 27 10 28 45
30 27 21 16 11 7 5 357 2 7 9 9 7 357 7 12 1 0 355 353 350 24 85 97 94 68 77 152 149 129 131 135 139 188 248 244 199 163 137 90 145 125 73 30 13 357 66
28 25 23 19 13 9 3 357 352 358 0 4 6 358 357 357 356 360 1 6 28 92 127 117 84 39 82 188 72 149 133 154 191 243 246 249 266 135 235 131 57 83 55 94 312 355 22
27 24 21 19 16 10 4 359 351 348 350 355 358 354 346 338 339 343 348 358 30 188 189 276 330 89 59 54 34 155 180 237 211 227 232 249 115 129 46 95 53 23 125 101 41 16 80
26 23 21 18 15 12 7 359 353 345 343 345 345 351 343 339 332 329 338 12 45 19 299 322 21 48 103 98 231 268 254 237 347 249 27 81 65 81 43 73 166 158 105 82 147 325 45
21 19 18 14 13 10 6 0 353 345 338 339 345 343 348 357 9 356 354 7 15 354 29 81 259 43 319 76 104 24 342 46 220 65 63 22 68 58 316 319 157 133 111 115 64 303 141
14 14 11 11 11 11 7 1 355 347 338 332 340 341 338 346 16 27 40 75 144 311 354 6 81 15 353 6 42 358 8 133 69 68 56 49 68 305 297 243 156 103 116 88 59 344 119
10 8 8 8 10 11 10 4 359 350 338 340 348 348 327 317 352 40 65 62 26 3 68 352 340 5 324 23 26 333 16 20 66 63 54 87 324 343 59 43 100 36 119 156 144 122 32
5 4 5 9 10 11 12 12 4 356 356 356 8 1 342 262 273 358 51 16 8 24 69 331 344 358 1 359 32 343 16 54 44 97 63 68 334 59 46 69 21 76 328 110 108 89 177
359 2 4 7 9 11 11 13 11 2 18 32 15 359 20 144 130 89 313 347 351 112 62 305 318 314 343 68 315 346 10 34 57 24 92 331 14 34 55 350 323 135 77 78 91 86 64
356 359 2 5 8 10 11 11 13 10 25 41 32 25 101 82 99 101 270 2 29 44 325 334 324 342 6 14 8 339 23 49 143 62 49 78 27 53 90 1 41 118 63 43 54 66 27
351 355 359 2 5 9 10 12 12 10 12 23 46 38 54 94 94 88 145 65 40 81 296 317 331 355 56 358 12 33 34 24 83 78 8 5 14 336 21 56 16 55 53 18 11 9 218
347 351 355 358 3 5 7 9 10 10 1 16 40 24 43 64 95 120 91 54 66 248 260 300 333 336 70 10 18 11 46 28 20 68 93 110 347 5 337 85 134 47 121 145 185 184 253
352 350 353 355 359 1 4 6 6 6 4 341 16 17 21 17 68 159 75 52 176 201 287 5 335 19 343 351 94 72 66 76 3 17 121 130 21 315 42 52 91 234 54 160 102 70 45
350 350 351 355 357 360 2 4 5 3 2 7 156 96 22 20 39 43 71 131 178 225 6 40 55 46 75 336 11 56 21 345 11 71 348 190 100 233 240 150 24 83 159 66 7 139 272
345 348 350 354 358 358 360 2 3 1 3 9 102 60 0 37 62 50 93 179 172 263 109 111 127 61 80 28 20 30 340 335 3 349 42 39 82 301 28 216 181 111 139 75 110 148 170
339 341 347 351 354 358 359 1 2 359 6 11 40 44 358 19 48 38 64 9 334 349 343 326 348 89 93 28 58 80 100 337 346 357 39 24 122 155 191 262 180 194 201 151 126 226 237
329 333 342 349 354 358 0 0 1 360 355 338 83 233 8 80 80 28 308 57 52 12 5 342 345 16 9 101 113 141 162 214 79 65 109 357 4 46 351 353 358 241 216 174 130 100 201
316 327 335 345 352 358 1 1 0 0 355 21 65 28 341 44 101 115 115 46 35 17 316 327 303 5 7 354 16 158 146 197 37 89 159 127 134 164 190 209 131 233 231 209 161 147 196
305 317 322 338 351 360 3 3 2 2 2 11 32 242 201 341 10 90 95 43 96 359 356 355 330 306 33 214 4 352 71 11 11 23 50 97 203 175 240 242 231 225 229 214 211 203 202
293 304 306 323 340 352 359 4 6 6 3 55 110 128 23 160 216 111 20 157 139 110 94 350 7 338 331 274 307 226 167 180 243 2 85 32 305 41 305 323 340 273 249 229 231 235 254
280 291 292 310 324 339 351 1 6 12 27 49 14 8 70 264 157 124 200 179 178 162 124 126 137 16 343 13 317 310 317 67 179 160 192 138 126 67 270 353 322 285 239 215 201 206 217
267 275 284 287 307 324 334 348 360 9 23 46 44 59 47 290 206 209 187 187 181 190 163 171 149 158 185 311 294 240 249 245 218 56 151 144 134 143 259 0 292 250 240 191 202 239 234
260 262 267 275 285 300 319 327 339 355 6 24 31 33 110 252 254 310 180 181 136 314 231 226 261 173 161 117 75 17 348 353 28 38 19 171 136 279 201 245 296 349 45 148 175 258 300
257 257 257 265 272 281 297 306 315 334 354 356 6 22 90 109 250 285 170 192 187 181 338 303 344 291 57 69 125 156 194 200 227 305 18 38 39 143 141 196 256 238 327 3 215 291 346
254 254 256 255 260 265 277 286 295 308 321 320 319 2 110 151 277 97 200 193 161 143 169 209 165 50 19 22 187 184 220 164 193 183 169 152 168 200 211 273 290 259 284 328 111 243 321
265 254 252 255 252 254 259 269 278 285 274 280 277 287 169 164 277 271 250 141 28 76 162 197 66 20 74 148 231 266 205 230 170 163 181 173 158 194 151 193 262 189 62 182 204 225 224
268 262 255 250 254 250 253 258 265 271 263 240 237 251 234 194 237 269 259 260 245 228 161 221 189 158 181 119 210 93 288 341 190 256 46 264 201 184 191 216 242 239 232 195 176 221 234
Height
839 837 835 832 829 825 821 818 815 812 810 806 801 797 794 790 786 782 778 777 771 769 766 766 767 767 767 772 776 775 774 775 776 777 780 782 783 787 791 791 792 799 797 798 797 792 796
841 838 836 833 830 826 821 817 814 812 809 807 803 798 796 792 788 785 783 780 777 773 771 770 767 768 768 774 776 775 775 775 776 782 785 783 782 784 788 791 794 798 801 803 800 799 800
842 840 837 834 830 827 823 818 813 812 810 807 804 800 796 795 789 787 784 782 779 776 774 771 771 770 769 777 776 776 777 777 779 785 787 779 780 785 786 793 796 799 806 806 807 806 805
843 840 838 835 831 827 823 819 814 811 809 807 805 801 797 795 791 788 785 783 780 778 775 773 772 772 776 779 778 779 780 786 783 781 783 779 779 782 785 790 796 806 814 822 813 809 807
844 841 839 836 832 828 823 819 815 811 808 806 804 802 798 795 793 790 787 785 781 779 777 775 773 772 784 785 781 782 783 781 778 778 780 779 778 788 790 803 815 815 833 823 817 811 809
845 842 839 836 833 829 824 819 815 810 807 804 803 801 798 796 793 791 788 786 783 779 777 776 773 777 785 788 781 779 777 779 777 781 777 779 788 799 806 809 828 819 827 823 823 816 813
845 842 840 837 833 830 825 820 815 810 806 804 801 799 798 797 794 791 788 785 789 789 782 787 787 783 782 785 784 779 774 780 776 778 787 790 806 824 809 805 804 807 816 823 822 817 817
846 843 840 836 833 829 825 820 814 809 805 802 801 799 797 796 795 793 792 794 799 800 794 786 786 785 781 782 783 781 778 780 782 792 787 801 812 805 805 803 803 808 819 824 821 818 820
846 843 840 836 832 829 825 820 814 808 803 801 800 799 797 796 796 795 796 798 798 798 800 793 790 789 789 785 790 788 783 783 790 798 802 810 808 803 804 810 808 823 820 822 821 822 821
847 844 840 836 832 829 824 819 813 807 802 801 800 798 796 796 799 797 799 799 798 798 824 812 798 793 790 789 792 787 784 788 793 802 804 814 811 808 811 814 817 821 819 816 821 832 848
848 844 841 837 833 829 824 818 812 807 803 801 800 798 797 796 797 799 801 799 799 800 852 813 804 794 792 796 796 792 789 791 802 806 804 821 818 818 819 824 819 821 817 820 826 840 849
848 845 841 838 834 829 824 818 812 807 804 802 801 798 797 798 798 799 799 799 800 831 854 822 807 806 803 800 799 796 796 794 801 810 811 818 816 820 822 819 820 817 823 832 841 852 876
848 845 842 838 835 830 824 819 813 808 805 803 802 800 798 798 800 799 799 800 829 852 829 822 817 811 811 811 806 805 809 811 816 831 839 826 826 825 821 820 821 826 838 878 863 880 867
848 846 843 839 835 830 825 819 813 807 804 803 802 801 800 799 799 799 800 815 842 840 827 816 814 813 814 812 810 813 814 825 815 821 848 853 854 831 826 828 832 834 840 873 857 867 867
849 846 843 840 835 831 825 820 813 807 802 802 801 802 801 801 800 800 806 839 846 839 822 821 816 816 816 810 810 815 821 824 821 820 825 841 838 830 829 829 831 833 850 841 863 882 883
849 846 843 840 836 831 826 820 814 808 802 800 800 800 801 801 800 801 818 833 827 822 820 819 822 817 820 817 814 815 820 821 823 821 819 821 835 832 830 829 830 830 835 853 870 858 858
849 846 843 841 836 832 826 821 815 808 803 800 799 804 802 801 801 808 837 835 823 819 819 820 822 820 819 821 818 820 825 821 818 817 816 820 828 840 833 835 835 838 839 842 850 860 864
848 846 843 841 837 832 828 823 817 810 804 800 801 817 802 802 816 831 833 822 820 820 819 819 819 819 819 820 822 825 827 827 823 820 821 825 837 858 834 832 829 830 832 839 860 848 860
848 846 843 840 837 833 828 824 819 813 807 805 807 810 802 800 833 837 826 824 824 822 823 822 820 820 818 820 824 823 827 825 824 827 830 829 836 864 842 837 832 831 830 831 840 849 849
847 845 843 840 837 834 829 824 819 814 809 807 811 822 813 811 824 825 823 825 826 825 824 823 822 820 820 820 820 824 827 826 826 826 826 828 838 840 844 830 832 834 831 831 832 859 839
846 844 842 840 837 834 831 826 820 814 810 809 816 826 823 834 825 824 824 823 823 825 825 824 824 824 824 823 823 823 827 828 827 827 828 833 836 845 837 835 831 828 828 829 835 829 828
843 842 841 840 838 835 832 828 823 817 811 812 818 821 824 825 823 820 827 824 823 823 823 826 827 826 824 825 826 826 824 829 829 831 830 837 838 839 837 828 830 833 830 827 823 820 821
840 840 839 838 838 836 833 830 826 821 816 818 822 822 821 826 823 824 823 820 820 820 823 823 824 828 828 828 829 829 829 830 827 832 837 839 846 855 841 839 838 830 817 814 816 815 808
837 837 837 836 836 836 835 833 830 826 824 822 824 825 829 825 825 820 820 818 818 819 818 816 819 824 826 826 827 828 829 829 829 834 835 841 843 853 856 846 851 801 797 798 806 802 804
832 833 834 834 833 833 833 833 831 830 828 826 825 827 828 828 828 822 821 819 821 823 822 821 822 818 819 821 829 831 836 833 838 841 837 837 842 850 854 859 824 794 796 798 801 796 801
826 827 829 830 831 831 830 831 830 830 829 828 827 825 827 830 823 818 822 822 827 827 828 825 825 824 823 827 826 823 825 822 829 839 842 842 842 844 855 848 824 797 795 795 796 807 802
821 822 823 825 826 827 828 828 828 829 829 829 827 827 824 831 824 820 824 824 822 826 827 823 823 827 830 836 830 830 826 818 823 828 840 840 843 843 848 849 828 805 798 796 802 806 799
814 816 817 819 821 823 823 824 825 826 826 828 827 826 825 828 823 820 820 822 824 826 826 824 825 827 834 835 838 834 831 823 821 823 833 833 844 845 844 844 837 797 798 800 801 800 797
807 809 810 812 816 818 819 820 821 822 823 824 826 826 824 823 821 818 817 817 819 819 823 823 820 821 822 833 838 837 832 839 832 824 825 830 821 828 825 814 798 795 792 790 794 794 793